Knox Cnty, Mount Vernon, OH, OH

3:53 PM EST on November 12, 2019 (GMT -0500)
Knox Cnty, Mount Vernon, OH

Weather History for K4I3 - July, 2019

Change the Weather History Date:

Monday, July 15, 2019

  Actual Average (KVTA) Record (KVTA)
Temperature  
Mean Temperature 78 °F -  
Max Temperature 91 °F 85 °F 100 °F (1936)
Min Temperature 66 °F 62 °F 48 °F (1950)
Cooling Degree Days 14    
Growing Degree Days 28 (Base 50)    
Moisture  
Dew Point 69 °F    
Average Humidity 77    
Maximum Humidity 100    
Minimum Humidity 52    
Precipitation  
Precipitation 0.43 in - - ()
Sea Level Pressure  
Sea Level Pressure 30.13 in    
Wind  
Wind Speed 3 mph (SSE)    
Max Wind Speed 14 mph    
Max Gust Speed 20 mph    
Visibility 10 miles    
Events Rain    
Averages and records for this station are not official NWS values.
T = Trace of Precipitation, MM = Missing Value Source: NWS Daily Summary

Daily Weather History Graph

Daily Weather History Graph

Search for Another Location

Airport or City:

Astronomy

Jul. 15, 2019 Rise Set
Actual Time 6:12 AM EDT 8:58 PM EDT
Civil Twilight 5:40 AM EDT 9:30 PM EDT
Nautical Twilight 5:00 AM EDT 10:11 PM EDT
Astronomical Twilight 4:14 AM EDT 10:56 PM EDT
Moon 8:15 PM EDT (7/15) 4:59 AM EDT (7/15)
Length of Visible Light 15h 50m
Length of Day
14h 46m
Waxing Gibbous, 98% of the Moon is Illuminated
Jul 15
Waxing Gibbous
Jul 16
Full
Jul 24
Last Quarter
Jul 31
New
Aug 7
First Quarter

Hourly Weather History & Observations

Time (EDT) Temp. Heat Index Dew Point Humidity Pressure Visibility Wind Dir Wind Speed Gust Speed Precip Events Conditions
12:19 AM 71.6 °F - 64.4 °F 78% 30.15 in 10.0 mi NNE 4.6 mph - N/A   Clear
12:37 AM 71.6 °F - 64.4 °F 78% 30.15 in 10.0 mi NNE 3.5 mph - N/A   Clear
12:56 AM 71.6 °F - 64.4 °F 78% 30.15 in 10.0 mi NNE 4.6 mph - N/A   Clear
1:15 AM 69.8 °F - 64.4 °F 83% 30.15 in 10.0 mi NE 3.5 mph - N/A   Clear
1:35 AM 69.8 °F - 62.6 °F 78% 30.15 in 10.0 mi NE 3.5 mph - N/A   Clear
1:59 AM 69.8 °F - 62.6 °F 78% 30.15 in 10.0 mi NE 3.5 mph - N/A   Clear
2:17 AM 69.8 °F - 62.6 °F 78% 30.15 in 10.0 mi Calm Calm - N/A   Clear
2:35 AM 69.8 °F - 62.6 °F 78% 30.14 in 10.0 mi Calm Calm - N/A   Clear
2:55 AM 69.8 °F - 62.6 °F 78% 30.14 in 10.0 mi Calm Calm - N/A   Clear
2:56 AM 69.8 °F - 62.6 °F 78% 30.14 in 10.0 mi Calm Calm - N/A   Clear
3:15 AM 68.0 °F - 62.6 °F 83% 30.13 in 10.0 mi Calm Calm - N/A   Clear
3:39 AM 68.0 °F - 62.6 °F 83% 30.13 in 10.0 mi Calm Calm - N/A   Clear
3:57 AM 68.0 °F - 62.6 °F 83% 30.13 in 10.0 mi NNE 4.6 mph - N/A   Clear
4:15 AM 66.2 °F - 62.6 °F 88% 30.13 in 10.0 mi NNE 4.6 mph - N/A   Clear
4:35 AM 66.2 °F - 62.6 °F 88% 30.14 in 10.0 mi NNE 3.5 mph - N/A   Clear
4:55 AM 66.2 °F - 62.6 °F 88% 30.15 in 10.0 mi North 3.5 mph - N/A   Clear
5:19 AM 66.2 °F - 62.6 °F 88% 30.15 in 10.0 mi NNE 3.5 mph - N/A   Clear
5:37 AM 66.2 °F - 62.6 °F 88% 30.15 in 10.0 mi NNE 3.5 mph - N/A   Clear
5:55 AM 66.2 °F - 62.6 °F 88% 30.15 in 10.0 mi Calm Calm - N/A   Clear
6:15 AM 66.2 °F - 62.6 °F 88% 30.15 in 10.0 mi Calm Calm - N/A   Clear
6:35 AM 66.2 °F - 62.6 °F 88% 30.15 in 10.0 mi Calm Calm - N/A   Clear
6:59 AM 66.2 °F - 64.4 °F 94% 30.16 in 10.0 mi NE 3.5 mph - N/A   Clear
7:17 AM 68.0 °F - 64.4 °F 88% 30.16 in 10.0 mi NE 3.5 mph - N/A   Clear
7:35 AM 69.8 °F - 64.4 °F 83% 30.17 in 10.0 mi NE 3.5 mph - N/A   Clear
7:55 AM 69.8 °F - 64.4 °F 83% 30.17 in 10.0 mi Calm Calm - N/A   Clear
8:16 AM 71.6 °F - 64.4 °F 78% 30.18 in 10.0 mi Calm Calm - N/A   Clear
8:39 AM 73.4 °F - 64.4 °F 73% 30.18 in 10.0 mi Calm Calm - N/A   Clear
8:57 AM 75.2 °F - 64.4 °F 69% 30.18 in 10.0 mi Calm Calm - N/A   Clear
9:15 AM 75.2 °F - 64.4 °F 69% 30.18 in 10.0 mi East 3.5 mph - N/A   Clear
9:35 AM 77.0 °F - 66.2 °F 69% 30.17 in 10.0 mi Calm Calm - N/A   Clear
9:55 AM 78.8 °F - 68.0 °F 69% 30.17 in 10.0 mi Calm Calm - N/A   Clear
10:19 AM 80.6 °F 83.9 °F 69.8 °F 70% 30.17 in 10.0 mi Calm Calm - N/A   Clear
10:37 AM 80.6 °F 83.9 °F 69.8 °F 70% 30.17 in 10.0 mi Calm Calm - N/A   Clear
10:55 AM 82.4 °F 87.2 °F 71.6 °F 70% 30.17 in 10.0 mi Calm Calm - N/A   Clear
11:15 AM 82.4 °F 87.2 °F 71.6 °F 70% 30.17 in 10.0 mi Calm Calm - N/A   Clear
11:35 AM 84.2 °F 89.6 °F 71.6 °F 66% 30.16 in 10.0 mi Calm Calm - N/A   Clear
11:59 AM 84.2 °F 89.6 °F 71.6 °F 66% 30.16 in 10.0 mi Calm Calm - N/A   Clear
12:17 PM 84.2 °F 88.4 °F 69.8 °F 62% 30.16 in 10.0 mi SW 3.5 mph - N/A   Clear
12:35 PM 86.0 °F 91.8 °F 71.6 °F 62% 30.16 in 10.0 mi Calm Calm - N/A   Clear
12:55 PM 86.0 °F 93.4 °F 73.4 °F 66% 30.15 in 10.0 mi SSW 4.6 mph - N/A   Clear
1:15 PM 87.8 °F 93.8 °F 71.6 °F 58% 30.15 in 10.0 mi Calm Calm - N/A   Scattered Clouds
1:39 PM 87.8 °F 95.6 °F 73.4 °F 62% 30.15 in 10.0 mi South 4.6 mph - N/A   Clear
1:57 PM 87.8 °F 93.8 °F 71.6 °F 58% 30.14 in 10.0 mi South 3.5 mph - N/A   Clear
2:15 PM 89.6 °F 96.2 °F 71.6 °F 55% 30.14 in 10.0 mi South 5.8 mph - N/A   Clear
2:35 PM 89.6 °F 96.2 °F 71.6 °F 55% 30.13 in 10.0 mi Calm Calm - N/A   Clear
2:55 PM 89.6 °F 96.2 °F 71.6 °F 55% 30.13 in 10.0 mi West 3.5 mph - N/A   Scattered Clouds
3:18 PM 89.6 °F 96.2 °F 71.6 °F 55% 30.12 in 10.0 mi South 5.8 mph - N/A   Scattered Clouds
3:37 PM 89.6 °F 98.2 °F 73.4 °F 59% 30.11 in 10.0 mi SSE 4.6 mph - N/A   Scattered Clouds
3:55 PM 91.4 °F 100.1 °F 73.4 °F 55% 30.11 in 10.0 mi South 5.8 mph - N/A   Scattered Clouds
4:15 PM 91.4 °F 98.4 °F 71.6 °F 52% 30.10 in 10.0 mi West 3.5 mph - N/A   Clear
4:35 PM 91.4 °F 98.4 °F 71.6 °F 52% 30.10 in 10.0 mi Calm Calm - N/A   Clear
4:58 PM 89.6 °F 98.2 °F 73.4 °F 59% 30.10 in 10.0 mi South 5.8 mph - N/A   Scattered Clouds
5:16 PM 87.8 °F 95.6 °F 73.4 °F 62% 30.10 in 10.0 mi SSE 5.8 mph - N/A   Scattered Clouds
5:35 PM 86.0 °F 93.4 °F 73.4 °F 66% 30.10 in 10.0 mi South 5.8 mph - N/A   Clear
5:36 PM 84.2 °F 90.9 °F 73.4 °F 70% 30.10 in 10.0 mi SSE 6.9 mph - N/A   Clear
5:55 PM 86.0 °F 95.1 °F 75.2 °F 70% 30.10 in 10.0 mi SSE 4.6 mph - N/A   Scattered Clouds
6:15 PM 87.8 °F 95.6 °F 73.4 °F 62% 30.09 in 10.0 mi SSE 6.9 mph - N/A   Clear
6:38 PM 86.0 °F 93.4 °F 73.4 °F 66% 30.09 in 10.0 mi South 5.8 mph - N/A   Clear
6:56 PM 86.0 °F 93.4 °F 73.4 °F 66% 30.09 in 10.0 mi South 4.6 mph - N/A   Scattered Clouds
7:15 PM 84.2 °F 90.9 °F 73.4 °F 70% 30.09 in 10.0 mi South 5.8 mph - N/A   Scattered Clouds
7:35 PM 82.4 °F 87.2 °F 71.6 °F 70% 30.09 in 10.0 mi South 13.8 mph 18.4 mph N/A   Scattered Clouds
7:36 PM 82.4 °F 87.2 °F 71.6 °F 70% 30.09 in 10.0 mi South 13.8 mph 18.4 mph N/A   Scattered Clouds
7:55 PM 77.0 °F - 73.4 °F 89% 30.09 in 7.0 mi SSW 13.8 mph 18.4 mph N/A Rain Light Rain
8:18 PM 73.4 °F - 71.6 °F 94% 30.12 in 2.0 mi WSW 10.4 mph 19.6 mph 0.17 in Rain Heavy Rain
8:36 PM 71.6 °F - 71.6 °F 100% 30.11 in 4.0 mi South 9.2 mph - 0.43 in Rain Heavy Rain
8:55 PM 71.6 °F - 71.6 °F 100% 30.11 in 10.0 mi SSW 3.5 mph - 0.43 in   Mostly Cloudy
9:15 PM 73.4 °F - 73.4 °F 100% 30.10 in 10.0 mi WSW 3.5 mph - N/A   Scattered Clouds
9:16 PM 73.4 °F - 73.4 °F 100% 30.11 in 10.0 mi WSW 3.5 mph - N/A   Scattered Clouds
9:35 PM 73.4 °F - 73.4 °F 100% 30.11 in 10.0 mi Calm Calm - N/A   Clear
9:58 PM 73.4 °F - 73.4 °F 100% 30.12 in 7.0 mi Calm Calm - N/A   Clear
10:16 PM 71.6 °F - 71.6 °F 100% 30.12 in 7.0 mi Calm Calm - N/A   Clear
10:35 PM 71.6 °F - 71.6 °F 100% 30.12 in 7.0 mi SSE 3.5 mph - N/A   Clear
10:55 PM 71.6 °F - 71.6 °F 100% 30.12 in 10.0 mi Calm Calm - N/A   Clear
11:19 PM 71.6 °F - 71.6 °F 100% 30.12 in 5.0 mi South 3.5 mph - N/A   Clear
11:38 PM 71.6 °F - 71.6 °F 100% 30.12 in 7.0 mi SSW 3.5 mph - N/A   Clear
11:56 PM 71.6 °F - 71.6 °F 100% 30.12 in 7.0 mi SSW 4.6 mph - N/A   Clear